| time (UTC) | temp F | wind direction | speed MPH | gust MPH | rain 1hr in | rain 24hr in | rain mn in | humidity % | barometer mb |
| 20260503024610 | 37 | 272 | 0.0 | 1.0 | 0.00 | 0.05 | 0.01 | 75 | 959.4 |
| 20260503023049 | 38 | 271 | 1.0 | 2.0 | 0.00 | 0.05 | 0.01 | 74 | 959.5 |
| 20260503021555 | 38 | 271 | 1.0 | 2.0 | 0.00 | 0.05 | 0.01 | 74 | 959.6 |
| 20260503020050 | 38 | 271 | 1.0 | 3.0 | 0.00 | 0.05 | 0.01 | 73 | 959.5 |
| 20260503014547 | 38 | 278 | 1.0 | 4.0 | 0.00 | 0.07 | 0.01 | 72 | 959.4 |
| 20260503013048 | 39 | 271 | 1.0 | 3.0 | 0.00 | 0.07 | 0.01 | 70 | 959.5 |
| 20260503011549 | 39 | 271 | 1.0 | 3.0 | 0.00 | 0.07 | 0.01 | 69 | 959.3 |
| 20260503010046 | 39 | 271 | 0.0 | 3.0 | 0.00 | 0.07 | 0.01 | 68 | 959.2 |
| 20260503004547 | 39 | 271 | 1.0 | 3.0 | 0.00 | 0.10 | 0.01 | 68 | 959.0 |
| 20260503003045 | 40 | 274 | 0.0 | 3.0 | 0.00 | 0.10 | 0.01 | 67 | 958.9 |
| 20260503001557 | 40 | 278 | 1.0 | 3.0 | 0.00 | 0.10 | 0.01 | 66 | 958.9 |
| 20260503000053 | 41 | 270 | 1.0 | 3.0 | 0.00 | 0.10 | 0.01 | 63 | 958.9 |
| 20260502234543 | 41 | 269 | 2.0 | 4.0 | 0.00 | 0.15 | 0.01 | 63 | 958.8 |
| 20260502233059 | 42 | 250 | 0.0 | 2.0 | 0.00 | 0.15 | 0.01 | 65 | 958.7 |
| 20260502231559 | 42 | 248 | 2.0 | 4.0 | 0.00 | 0.15 | 0.01 | 60 | 958.6 |
| 20260502230042 | 43 | 248 | 2.0 | 3.0 | 0.00 | 0.15 | 0.01 | 61 | 958.6 |
| 20260502224541 | 43 | 248 | 2.0 | 3.0 | 0.00 | 0.15 | 0.01 | 61 | 958.5 |
| 20260502223047 | 43 | 259 | 2.0 | 4.0 | 0.00 | 0.15 | 0.01 | 61 | 958.5 |
| 20260502221550 | 43 | 261 | 2.0 | 4.0 | 0.00 | 0.15 | 0.01 | 61 | 958.6 |
| 20260502220043 | 44 | 270 | 2.0 | 4.0 | 0.00 | 0.15 | 0.01 | 59 | 958.4 |
| 20260502214540 | 44 | 269 | 1.0 | 4.0 | 0.00 | 0.15 | 0.01 | 58 | 958.4 |
| 20260502213139 | 45 | 257 | 3.0 | 6.0 | 0.00 | 0.15 | 0.01 | 57 | 958.4 |
| 20260502211545 | 44 | 254 | 3.0 | 5.0 | 0.00 | 0.15 | 0.01 | 57 | 958.2 |
| 20260502210039 | 44 | 250 | 3.0 | 7.0 | 0.00 | 0.15 | 0.01 | 56 | 958.1 |
| 20260502204546 | 45 | 261 | 3.0 | 6.0 | 0.00 | 0.15 | 0.01 | 55 | 958.3 |
| 20260502203036 | 45 | 242 | 2.0 | 4.0 | 0.00 | 0.15 | 0.01 | 51 | 958.2 |
| 20260502201536 | 45 | 254 | 1.0 | 4.0 | 0.00 | 0.15 | 0.01 | 52 | 958.4 |
| 20260502200035 | 45 | 254 | 3.0 | 7.0 | 0.00 | 0.15 | 0.01 | 51 | 958.6 |
| 20260502194537 | 46 | 257 | 3.0 | 6.0 | 0.00 | 0.15 | 0.01 | 51 | 958.6 |
| 20260502193034 | 47 | 230 | 2.0 | 4.0 | 0.00 | 0.15 | 0.01 | 50 | 958.8 |
| 20260502191537 | 47 | 254 | 2.0 | 5.0 | 0.00 | 0.15 | 0.01 | 50 | 958.9 |
| 20260502190033 | 46 | 221 | 2.0 | 7.0 | 0.00 | 0.15 | 0.01 | 51 | 959.0 |
| 20260502184534 | 46 | 217 | 1.0 | 3.0 | 0.00 | 0.15 | 0.01 | 52 | 959.1 |
| 20260502183031 | 45 | 237 | 1.0 | 5.0 | 0.00 | 0.15 | 0.01 | 50 | 959.2 |
| 20260502181532 | 46 | 257 | 2.0 | 4.0 | 0.00 | 0.15 | 0.01 | 51 | 959.2 |
| 20260502163032 | 48 | 253 | 4.0 | 8.0 | 0.00 | 0.15 | 0.01 | 48 | 959.1 |
| 20260502161523 | 46 | 265 | 2.0 | 4.0 | 0.00 | 0.15 | 0.01 | 48 | 959.3 |
| 20260502151516 | 46 | 263 | 3.0 | 7.0 | 0.00 | 0.15 | 0.01 | 56 | 959.4 |
| 20260502123050 | 40 | 251 | 2.0 | 4.0 | 0.00 | 0.15 | 0.01 | 87 | 959.4 |
| 20260502121551 | 39 | 249 | 1.0 | 4.0 | 0.00 | 0.15 | 0.01 | 89 | 959.4 |
| 20260502120145 | 39 | 254 | 1.0 | 3.0 | 0.00 | 0.15 | 0.01 | 92 | 959.4 |
| 20260502114543 | 37 | 254 | 1.0 | 6.0 | 0.00 | 0.15 | 0.01 | 93 | 959.4 |
| 20260502113043 | 37 | 256 | 0.0 | 2.0 | 0.00 | 0.15 | 0.01 | 93 | 959.4 |
| 20260502111540 | 37 | 256 | 1.0 | 3.0 | 0.00 | 0.15 | 0.01 | 93 | 959.3 |
| 20260502110038 | 37 | 256 | 1.0 | 3.0 | 0.00 | 0.15 | 0.01 | 93 | 959.1 |
| 20260502104546 | 37 | 256 | 1.0 | 3.0 | 0.00 | 0.15 | 0.01 | 94 | 959.2 |
| 20260502103031 | 37 | 256 | 2.0 | 4.0 | 0.00 | 0.15 | 0.01 | 93 | 959.1 |
| 20260502101528 | 37 | 247 | 0.0 | 0.0 | 0.00 | 0.15 | 0.01 | 93 | 959.0 |
| 20260502091525 | 37 | 247 | 0.0 | 0.0 | 0.01 | 0.15 | 0.01 | 93 | 958.6 |
| 20260502071527 | 38 | 247 | 0.0 | 2.0 | 0.00 | 0.14 | 0.00 | 93 | 958.0 |
| 20260502070014 | 38 | 247 | 0.0 | 2.0 | 0.00 | 0.14 | 0.00 | 93 | 958.1 |
| 20260502064513 | 39 | 257 | 1.0 | 3.0 | 0.00 | 0.14 | 0.00 | 93 | 957.9 |
| 20260502063008 | 39 | 266 | 1.0 | 3.0 | 0.00 | 0.14 | 0.00 | 93 | 957.8 |
| 20260502061507 | 39 | 260 | 0.0 | 2.0 | 0.00 | 0.14 | 0.00 | 93 | 958.1 |
| 20260502060006 | 40 | 260 | 1.0 | 3.0 | 0.00 | 0.14 | 0.00 | 93 | 957.8 |
| 20260502054511 | 40 | 260 | 1.0 | 2.0 | 0.00 | 0.14 | 0.00 | 93 | 957.9 |
| 20260502053002 | 40 | 260 | 1.0 | 3.0 | 0.00 | 0.14 | 0.00 | 93 | 957.8 |
| 20260502051701 | 40 | 265 | 3.0 | 4.0 | 0.00 | 0.14 | 0.00 | 93 | 957.7 |
| 20260502050101 | 40 | 238 | 1.0 | 3.0 | 0.00 | 0.14 | 0.00 | 93 | 958.0 |
| 20260502044608 | 41 | 236 | 2.0 | 4.0 | 0.01 | 0.14 | 0.00 | 93 | 958.1 |
| 20260502043103 | 41 | 235 | 2.0 | 4.0 | 0.01 | 0.14 | 0.00 | 93 | 958.2 |
| 20260502041554 | 41 | 240 | 2.0 | 4.0 | 0.01 | 0.14 | 0.00 | 93 | 958.0 |
| 20260502040050 | 42 | 240 | 1.0 | 4.0 | 0.02 | 0.14 | 0.00 | 93 | 957.8 |
| 20260502034549 | 42 | 198 | 1.0 | 3.0 | 0.01 | 0.13 | 0.13 | 93 | 957.7 |
| 20260502033149 | 42 | 198 | 1.0 | 3.0 | 0.01 | 0.13 | 0.13 | 93 | 957.7 |
| 20260502031606 | 42 | 147 | 0.0 | 0.0 | 0.01 | 0.13 | 0.13 | 93 | 957.8 |
| 20260502030047 | 42 | 142 | 0.0 | 1.0 | 0.02 | 0.12 | 0.12 | 93 | 957.8 |